Home   Weather   Sosnowiec   Past weeks

Flag for Poland Past Weather in Sosnowiec, Poland — Yesterday and Last 2 Weeks

Now
41 °F

Passing clouds.


Feels Like: 33 °F
Forecast: 35 / 50 °F
Wind: 16 mph from West

Location: Katowice Airport

Current Time: Apr 23, 2017 at 8:10:38 pm

Latest Report: Apr 23, 2017 at 7:30 pm


Visibility: N/A

Pressure: 30.01 "Hg

Humidity: 70%

Dew Point: 32 °F

Location of SosnowiecLocation

Past Weather in Sosnowiec — Graph

°F

Sosnowiec Temperature Yesterday

Maximum temperature yesterday: 48 °F (at 1:00 pm)
Minimum temperature yesterday: 32 °F (at 10:30 pm)
Average temperature yesterday: 43 °F

High & Low Weather Summary for the Past Weeks

 TemperatureHumidityPressure
High68 °F (Apr 10, 4:00 pm)100% (Apr 9, 12:00 am)30.39 "Hg (Apr 9, 12:00 am)
Low25 °F (Apr 21, 2:00 am)38% (Apr 10, 4:00 pm)29.68 "Hg (Apr 13, 5:30 am)
Average42 °F73%30.02 "Hg
* Reported Apr 8 7:00 pm — Apr 23 7:00 pm, Sosnowiec, Weather by CustomWeather, © 2017

Note: Actual official high and low records may vary slightly from our data, if they occured in-between our weather recording intervals... More about our weather records

Advertising

Sosnowiec Weather History for the Previous 24 Hours

Scroll right to see more
 ConditionsComfort  
Time TempWeatherWind HumidityBarometerVisibility
7:00 pm
Sun, Apr 23
43 °FBroken clouds.9 mph71%30.01 "HgN/A
6:30 pm41 °FScattered clouds.9 mph76%30.01 "HgN/A
6:00 pm41 °FScattered clouds.7 mph76%30.01 "HgN/A
5:30 pm39 °FScattered clouds.13 mph81%30.01 "HgN/A
5:00 pm41 °FScattered clouds.7 mph70%30.01 "HgN/A
4:30 pm39 °FSprinkles. Broken clouds.18 mph75%30.01 "HgN/A
4:00 pm48 °FScattered clouds.22 mph43%29.98 "HgN/A
3:00 pm41 °FScattered clouds.22 mph61%29.98 "HgN/A
2:30 pm46 °FScattered clouds.14 mph53%29.98 "HgN/A
2:00 pm46 °FScattered clouds.16 mph53%29.98 "HgN/A
1:30 pm45 °FScattered clouds.12 mph71%29.98 "HgN/A
1:00 pm45 °FScattered clouds.8 mph53%29.98 "HgN/A
12:30 pm46 °FBroken clouds.10 mph50%30.01 "HgN/A
12:00 pm46 °FScattered clouds.15 mph46%30.01 "HgN/A
11:30 am45 °FPartly sunny.20 mph57%30.01 "HgN/A
11:00 am43 °FPartly sunny.14 mph61%30.01 "HgN/A
10:30 am41 °FBroken clouds.15 mph61%30.01 "HgN/A
10:00 am39 °FBroken clouds.16 mph70%30.01 "HgN/A
9:00 am39 °FBroken clouds.15 mph70%29.98 "HgN/A
8:30 am39 °FBroken clouds.15 mph75%29.98 "HgN/A
8:00 am39 °FSprinkles. Broken clouds.12 mph75%29.95 "HgN/A
7:30 am37 °FPartly sunny.14 mph81%29.95 "HgN/A
7:00 am37 °FPartly sunny.13 mph81%29.95 "HgN/A
6:30 am36 °FBroken clouds.10 mph87%29.92 "HgN/A
6:00 am37 °FMostly cloudy.9 mph81%29.92 "HgN/A
5:30 am37 °FOvercast.10 mph81%29.92 "HgN/A
5:00 am37 °FMostly cloudy.9 mph81%29.92 "HgN/A
4:30 am36 °FOvercast.10 mph87%29.92 "HgN/A
4:00 am36 °FOvercast.13 mph87%29.92 "HgN/A
3:30 am36 °FOvercast.9 mph87%29.92 "HgN/A
3:00 am34 °FPassing clouds.9 mph87%29.92 "HgN/A
2:30 am32 °FClear.6 mph93%29.92 "Hg10 mi
2:00 am34 °FClear.5 mph87%29.92 "Hg10 mi
1:30 am34 °FPassing clouds.8 mph87%29.92 "HgN/A
1:00 am34 °FPassing clouds.5 mph93%29.95 "HgN/A
12:30 am36 °FSprinkles. Partly cloudy.8 mph87%29.95 "HgN/A
12:00 am34 °FPassing clouds.10 mph81%29.95 "HgN/A
11:30 pm
Sat, Apr 22
32 °FPassing clouds.8 mph87%29.95 "HgN/A
11:00 pm32 °FPassing clouds.7 mph87%29.95 "HgN/A
10:30 pm32 °FClear.5 mph93%29.95 "Hg10 mi
10:00 pm34 °FPassing clouds.6 mph87%29.95 "HgN/A
9:30 pm36 °FPassing clouds.6 mph81%29.95 "HgN/A
8:30 pm37 °FPassing clouds.6 mph75%29.95 "HgN/A
8:00 pm37 °FPassing clouds.7 mph75%29.95 "HgN/A
Weather by CustomWeather, © 2017

See weather overviewHow to use our weather pages